Weather History for KISQ - February, 2013

Change the Weather History Date:

Tuesday, February 26, 2013

  Actual Average Record
Temperature  
Mean Temperature 30 °F -  
Max Temperature 33 °F 29 °F 43 °F (1958)
Min Temperature 28 °F 8 °F -23 °F (1963)
Degree Days  
Heating Degree Days 34    
Moisture  
Dew Point 25 °F    
Average Humidity 78    
Maximum Humidity 93    
Minimum Humidity 60    
Precipitation  
Precipitation 0.00 in - - ()
Sea Level Pressure  
Sea Level Pressure 30.03 in    
Wind  
Wind Speed 7 mph (ENE)    
Max Wind Speed 18 mph    
Max Gust Speed 26 mph    
Visibility 10 miles    
Events      
Averages and records for this station are not official NWS values.
T = Trace of Precipitation, MM = Missing Value Source: NWS Daily Summary

Daily Weather History Graph

Daily Weather History Graph

Search for Another Location

Airport or City:

Trip Planner

Search our weather history database for the weather conditions in past years. The results will help you decide how hot, cold, wet, or windy it might be!

Date:

Astronomy

Feb. 26, 2013 Rise Set
Actual Time 7:28 AM EST 6:27 PM EST
Civil Twilight 6:58 AM EST 6:57 PM EST
Nautical Twilight 6:23 AM EST 7:32 PM EST
Astronomical Twilight 5:49 AM EST 8:06 PM EST
Moon 7:50 PM EST (2/26) 7:25 AM EST (2/26)
Length of Visible Light 11h 59m
Length of Day
10h 58m
Full, 99% of the Moon is Illuminated
Feb 26
Full
Mar 4
Last Quarter
Mar 11
New
Mar 19
First Quarter
Mar 27
Full

Hourly Weather History & Observations

Time (EST) Temp. Windchill Dew Point Humidity Pressure Visibility Wind Dir Wind Speed Gust Speed Precip Events Conditions
12:14 AM 30.2 °F 26.7 °F 26.6 °F 86% 30.12 in 7.0 mi ESE 3.5 mph - N/A   Overcast
12:35 AM 30.2 °F - 28.4 °F 93% 30.13 in 7.0 mi Calm Calm - N/A   Overcast
12:55 AM 30.2 °F 26.7 °F 28.4 °F 93% 30.14 in 7.0 mi SE 3.5 mph - N/A   Overcast
1:14 AM 32.0 °F - 28.4 °F 87% 30.14 in 7.0 mi Calm Calm - N/A   Overcast
1:35 AM 32.0 °F 26.4 °F 28.4 °F 87% 30.14 in 10.0 mi SE 5.8 mph - N/A   Overcast
1:54 AM 32.0 °F 28.7 °F 28.4 °F 87% 30.14 in 10.0 mi SE 3.5 mph - N/A   Overcast
2:14 AM 32.0 °F 27.5 °F 28.4 °F 87% 30.14 in 10.0 mi SE 4.6 mph - N/A   Overcast
2:35 AM 32.0 °F 28.7 °F 28.4 °F 87% 30.14 in 10.0 mi ESE 3.5 mph - N/A   Overcast
2:54 AM 32.0 °F 28.7 °F 28.4 °F 87% 30.13 in 10.0 mi East 3.5 mph - N/A   Overcast
3:15 AM 32.0 °F 28.7 °F 28.4 °F 87% 30.13 in 10.0 mi East 3.5 mph - N/A   Overcast
3:34 AM 32.0 °F - 28.4 °F 87% 30.12 in 10.0 mi Calm Calm - N/A   Overcast
3:54 AM 32.0 °F 27.5 °F 28.4 °F 87% 30.13 in 10.0 mi ESE 4.6 mph - N/A   Overcast
4:15 AM 32.0 °F 27.5 °F 28.4 °F 87% 30.12 in 10.0 mi East 4.6 mph - N/A   Overcast
4:34 AM 32.0 °F 27.5 °F 28.4 °F 87% 30.12 in 10.0 mi ENE 4.6 mph - N/A   Overcast
4:55 AM 30.2 °F 25.4 °F 28.4 °F 93% 30.11 in 10.0 mi ENE 4.6 mph - N/A   Overcast
5:15 AM 30.2 °F 25.4 °F 28.4 °F 93% 30.10 in 10.0 mi ENE 4.6 mph - N/A   Overcast
5:34 AM 30.2 °F 25.4 °F 26.6 °F 86% 30.11 in 10.0 mi ENE 4.6 mph - N/A   Overcast
5:55 AM 30.2 °F 26.7 °F 26.6 °F 86% 30.10 in 10.0 mi ENE 3.5 mph - N/A   Overcast
6:14 AM 30.2 °F 25.4 °F 26.6 °F 86% 30.10 in 10.0 mi ENE 4.6 mph - N/A   Overcast
6:34 AM 30.2 °F 24.3 °F 26.6 °F 86% 30.09 in 10.0 mi ENE 5.8 mph - N/A   Overcast
6:55 AM 30.2 °F 25.4 °F 26.6 °F 86% 30.09 in 10.0 mi East 4.6 mph - N/A   Overcast
7:14 AM 30.2 °F 24.3 °F 26.6 °F 86% 30.10 in 10.0 mi ENE 5.8 mph - N/A   Overcast
7:35 AM 30.2 °F 24.3 °F 26.6 °F 86% 30.10 in 10.0 mi ENE 5.8 mph - N/A   Overcast
7:55 AM 30.2 °F 24.3 °F 26.6 °F 86% 30.11 in 10.0 mi East 5.8 mph - N/A   Overcast
8:14 AM 30.2 °F 24.3 °F 26.6 °F 86% 30.10 in 10.0 mi ENE 5.8 mph - N/A   Overcast
8:35 AM 30.2 °F 24.3 °F 26.6 °F 86% 30.10 in 10.0 mi ENE 5.8 mph - N/A   Overcast
8:54 AM 30.2 °F 25.4 °F 26.6 °F 86% 30.10 in 10.0 mi ENE 4.6 mph - N/A   Overcast
9:35 AM 32.0 °F 26.4 °F 26.6 °F 80% 30.10 in 10.0 mi East 5.8 mph - N/A   Overcast
9:54 AM 32.0 °F 25.6 °F 24.8 °F 75% 30.10 in 10.0 mi East 6.9 mph - N/A   Overcast
10:15 AM 33.8 °F 30.8 °F 24.8 °F 70% 30.10 in 10.0 mi East 3.5 mph - N/A   Overcast
10:34 AM 33.8 °F 28.6 °F 23.0 °F 65% 30.09 in 10.0 mi East 5.8 mph - N/A   Overcast
10:54 AM 33.8 °F 25.8 °F 23.0 °F 65% 30.07 in 10.0 mi East 10.4 mph 16.1 mph N/A   Overcast
11:15 AM 33.8 °F 25.3 °F 23.0 °F 65% 30.07 in 10.0 mi ENE 11.5 mph 16.1 mph N/A   Overcast
11:34 AM 33.8 °F 25.3 °F 21.2 °F 60% 30.06 in 10.0 mi East 11.5 mph - N/A   Overcast
11:55 AM 33.8 °F 24.8 °F 23.0 °F 65% 30.06 in 10.0 mi East 12.7 mph - N/A   Overcast
12:15 PM 33.8 °F 25.8 °F 23.0 °F 65% 30.06 in 10.0 mi ENE 10.4 mph 17.3 mph N/A   Overcast
12:34 PM 33.8 °F 23.9 °F 24.8 °F 70% 30.05 in 10.0 mi ENE 15.0 mph 19.6 mph N/A   Overcast
12:54 PM 33.8 °F 25.3 °F 26.6 °F 75% 30.03 in 10.0 mi ENE 11.5 mph 18.4 mph N/A   Overcast
1:14 PM 33.8 °F 23.9 °F 26.6 °F 75% 30.02 in 10.0 mi ENE 15.0 mph 18.4 mph N/A   Overcast
1:35 PM 33.8 °F 23.2 °F 24.8 °F 70% 30.01 in 10.0 mi ENE 17.3 mph 23.0 mph N/A   Overcast
1:54 PM 33.8 °F 24.8 °F 24.8 °F 70% 30.00 in 10.0 mi East 12.7 mph 18.4 mph N/A   Overcast
2:15 PM 33.8 °F 24.3 °F 26.6 °F 75% 29.99 in 10.0 mi NE 13.8 mph 20.7 mph N/A   Overcast
2:35 PM 33.8 °F 24.3 °F 24.8 °F 70% 29.98 in 10.0 mi NE 13.8 mph 18.4 mph N/A   Overcast
2:54 PM 33.8 °F 24.3 °F 24.8 °F 70% 29.97 in 10.0 mi NE 13.8 mph 23.0 mph N/A   Overcast
3:15 PM 33.8 °F 23.5 °F 24.8 °F 70% 29.97 in 10.0 mi ENE 16.1 mph 25.3 mph N/A   Overcast
3:34 PM 33.8 °F 23.2 °F 24.8 °F 70% 29.96 in 10.0 mi ENE 17.3 mph 26.5 mph N/A   Overcast
3:54 PM 33.8 °F 23.2 °F 24.8 °F 70% 29.96 in 10.0 mi ENE 17.3 mph 24.2 mph N/A   Overcast
4:15 PM 33.8 °F 23.5 °F 24.8 °F 70% 29.95 in 10.0 mi ENE 16.1 mph 23.0 mph N/A   Overcast
4:34 PM 32.0 °F 21.2 °F 23.0 °F 69% 29.96 in 10.0 mi NE 16.1 mph 20.7 mph N/A   Overcast
4:55 PM 32.0 °F 23.0 °F 24.8 °F 75% 29.96 in 10.0 mi ENE 11.5 mph 18.4 mph N/A   Overcast
5:15 PM 32.0 °F 24.2 °F 24.8 °F 75% 29.96 in 10.0 mi ENE 9.2 mph - N/A   Overcast
5:34 PM 30.2 °F 19.8 °F 23.0 °F 75% 29.95 in 10.0 mi NE 13.8 mph 20.7 mph N/A   Overcast
5:55 PM 30.2 °F 19.8 °F 23.0 °F 75% 29.96 in 10.0 mi ENE 13.8 mph 20.7 mph N/A   Overcast
6:14 PM 30.2 °F 20.2 °F 23.0 °F 75% 29.96 in 10.0 mi ENE 12.7 mph 18.4 mph N/A   Overcast
6:35 PM 30.2 °F 21.3 °F 23.0 °F 75% 29.96 in 10.0 mi NE 10.4 mph 18.4 mph N/A   Overcast
6:55 PM 30.2 °F 21.3 °F 23.0 °F 75% 29.95 in 10.0 mi ENE 10.4 mph - N/A   Overcast
7:14 PM 30.2 °F 21.3 °F 23.0 °F 75% 29.96 in 10.0 mi ENE 10.4 mph 17.3 mph N/A   Overcast
7:35 PM 30.2 °F 20.2 °F 23.0 °F 75% 29.95 in 10.0 mi NE 12.7 mph 17.3 mph N/A   Overcast
7:54 PM 30.2 °F 18.1 °F 23.0 °F 75% 29.95 in 10.0 mi ENE 18.4 mph 23.0 mph N/A   Overcast
8:14 PM 30.2 °F 21.9 °F 23.0 °F 75% 29.96 in 10.0 mi NE 9.2 mph 13.8 mph N/A   Scattered Clouds
8:35 PM 30.2 °F 20.8 °F 23.0 °F 75% 29.94 in 10.0 mi NE 11.5 mph 17.3 mph N/A   Clear
8:54 PM 28.4 °F 19.1 °F 21.2 °F 74% 29.93 in 10.0 mi NE 10.4 mph - N/A   Clear
9:15 PM 28.4 °F 19.1 °F 21.2 °F 74% 29.92 in 10.0 mi NNE 10.4 mph - N/A   Clear
9:35 PM 28.4 °F 19.1 °F 23.0 °F 80% 29.91 in 10.0 mi NNE 10.4 mph - N/A   Clear
9:54 PM 28.4 °F 19.1 °F 21.2 °F 74% 29.90 in 10.0 mi NNE 10.4 mph 18.4 mph N/A   Clear
10:15 PM 28.4 °F 19.1 °F 23.0 °F 80% 29.90 in 10.0 mi NNE 10.4 mph 17.3 mph N/A   Clear
10:34 PM 28.4 °F 19.1 °F 21.2 °F 74% 29.89 in 10.0 mi NNE 10.4 mph 20.7 mph N/A   Clear
10:55 PM 28.4 °F 18.0 °F 21.2 °F 74% 29.88 in 10.0 mi NNE 12.7 mph - N/A   Clear
11:15 PM 28.4 °F 17.5 °F 23.0 °F 80% 29.87 in 10.0 mi NNE 13.8 mph - N/A   Clear
11:34 PM 28.4 °F 17.5 °F 21.2 °F 74% 29.87 in 10.0 mi NNE 13.8 mph - N/A   Clear
11:55 PM 28.4 °F 17.0 °F 21.2 °F 74% 29.86 in 10.0 mi NNE 15.0 mph - N/A   Clear